This demonstration page uses our WeatherBlox Daily Observations layout. Learn more.

Left ArrowRight Arrow

Hourly Observations for December 10, 2015

Temp ( °F °C ) Dew Point ( °F °C ) Humidity (%) Winds ( mph kmh ) Pressure ( in mb ) Visibility ( mi km ) Precip ( " mm )
12:58 am 00:58 Clear 43 5.9 39 3.7 86 86 E 5 7 29.49 999 10 16 0.00 0.00
1:58 am 01:58 Clear 51 10.7 41 5.1 69 69 SSW 10 17 29.45 997 10 16 0.00 0.00
2:58 am 02:58 Clear 53 11.5 40 4.3 62 62 VRB 5 7 29.47 998 10 16 0.00 0.00
3:58 am 03:58 Mostly Clear 50 9.9 38 3.5 65 65 VRB 6 9 29.46 998 10 16 0.00 0.00
4:58 am 04:58 Clear 52 11 37 2.9 58 58 SSW 7 11 29.45 997 10 16 0.00 0.00
5:58 am 05:58 Clear 49 9.7 37 2.9 63 63 WSW 8 13 29.49 999 10 16 0.00 0.00
6:58 am 06:58 Clear 53 11.9 36 2 51 51 W 20 31 29.55 1001 10 16 0.00 0.00
7:58 am 07:58 Sunny 52 11.1 40 4.3 63 63 WNW 17 28 29.60 1002 10 16 0.00 0.00
8:58 am 08:58 Sunny 53 11.4 40 4.6 63 63 WNW 29 46 29.64 1004 10 16 0.00 0.00
9:58 am 09:58 Sunny 53 11.7 39 3.8 59 59 WNW 18 30 29.67 1005 10 16 0.00 0.00
10:58 am 10:58 Sunny 54 12.3 38 3.4 55 55 WNW 17 28 29.69 1005 10 16 0.00 0.00
11:58 am 11:58 Sunny 56 13.5 37 2.7 48 48 W 16 26 29.67 1005 10 16 0.00 0.00
12:58 pm 12:58 Sunny 59 14.8 33 0.7 38 38 WNW 17 28 29.66 1005 10 16 0.00 0.00
1:58 pm 13:58 Sunny 60 15.4 28 -2 30 30 WNW 15 24 29.64 1004 10 16 0.00 0.00
2:58 pm 14:58 Sunny 60 15.4 25 -4.1 26 26 WNW 15 24 29.63 1003 10 16 0.00 0.00
3:58 pm 15:58 Sunny 58 14.3 23 -4.9 26 26 W 7 11 29.64 1004 10 16 0.00 0.00
4:58 pm 16:58 Clear 54 12.1 24 -4.6 31 31 WSW 6 9 29.66 1005 10 16 0.00 0.00
5:58 pm 17:58 Clear 50 9.8 25 -3.9 38 38 S 5 7 29.67 1005 10 16 0.00 0.00
6:58 pm 18:58 Clear 41 5.1 24 -4.4 51 51 SW 3 6 29.68 1005 10 16 0.00 0.00
7:58 pm 19:58 Clear 40 4.7 29 -1.5 64 64 Calm 29.67 1005 10 16 0.00 0.00
8:58 pm 20:58 Clear 36 2.4 28 -2.1 72 72 VRB 1 2 29.66 1005 10 16 0.00 0.00
9:58 pm 21:58 Clear 40 4.7 27 -3 58 58 SW 3 6 29.67 1005 10 16 0.00 0.00
10:58 pm 22:58 Clear 32 0.1 26 -3.1 79 79 Calm 29.69 1005 10 16 0.00 0.00
11:58 pm 23:58 Clear 30 -1.1 27 -2.8 88 88 Calm 29.67 1005 10 16 0.00 0.00

Powered by AerisWeather